Le Mars, IA

10:39 PM CDT on October 20, 2019 (GMT -0500)
Le Mars Municipal

Weather History for KLRJ - August, 2019

Change the Weather History Date:

Tuesday, August 27, 2019

  Actual Average Record
Temperature  
Mean Temperature 64 °F -  
Max Temperature 73 °F 82 °F 97 °F (1970)
Min Temperature 55 °F 59 °F 41 °F (1971)
Degree Days  
Heating Degree Days 1    
Growing Degree Days 14 (Base 50)    
Moisture  
Dew Point 52 °F    
Average Humidity 70    
Maximum Humidity 94    
Minimum Humidity 36    
Precipitation  
Precipitation 0.00 in - - ()
Sea Level Pressure  
Sea Level Pressure 29.95 in    
Wind  
Wind Speed 7 mph (West)    
Max Wind Speed 21 mph    
Max Gust Speed 29 mph    
Visibility 10 miles    
Events      
Averages and records for this station are not official NWS values.
T = Trace of Precipitation, MM = Missing Value Source: NWS Daily Summary

Daily Weather History Graph

Daily Weather History Graph

Search for Another Location

Airport or City:

Astronomy

Aug. 27, 2019 Rise Set
Actual Time 6:43 AM CDT 8:07 PM CDT
Civil Twilight 6:14 AM CDT 8:37 PM CDT
Nautical Twilight 5:38 AM CDT 9:12 PM CDT
Astronomical Twilight 5:01 AM CDT 9:50 PM CDT
Moon 3:04 AM CDT (8/27) 6:34 PM CDT (8/27)
Length of Visible Light 14h 22m
Length of Day
13h 24m
Waning Crescent, 11% of the Moon is Illuminated
Aug 27
Waning Crescent
Aug 30
New
Sep 5
First Quarter
Sep 13
Full
Sep 21
Last Quarter

Hourly Weather History & Observations

Time (CDT) Temp. Dew Point Humidity Pressure Visibility Wind Dir Wind Speed Gust Speed Precip Events Conditions
12:15 AM 62.6 °F 60.8 °F 94% 29.88 in 10.0 mi WNW 5.8 mph - N/A   Clear
12:35 AM 62.6 °F 59.0 °F 88% 29.88 in 10.0 mi WNW 6.9 mph - N/A   Clear
12:55 AM 60.8 °F 59.0 °F 94% 29.88 in 10.0 mi West 4.6 mph - N/A   Clear
1:15 AM 60.8 °F 59.0 °F 94% 29.89 in 10.0 mi WSW 3.5 mph - N/A   Clear
1:35 AM 60.8 °F 59.0 °F 94% 29.88 in 10.0 mi Calm Calm - N/A   Clear
1:55 AM 60.8 °F 57.2 °F 88% 29.89 in 10.0 mi West 4.6 mph - N/A   Clear
2:15 AM 59.0 °F 57.2 °F 94% 29.89 in 10.0 mi West 3.5 mph - N/A   Clear
2:35 AM 59.0 °F 57.2 °F 94% 29.89 in 10.0 mi West 3.5 mph - N/A   Clear
2:55 AM 59.0 °F 57.2 °F 94% 29.89 in 10.0 mi Variable 4.6 mph - N/A   Clear
3:15 AM 57.2 °F 55.4 °F 94% 29.89 in 10.0 mi South 6.9 mph - N/A   Clear
3:35 AM 57.2 °F 55.4 °F 94% 29.90 in 10.0 mi SSW 5.8 mph - N/A   Clear
3:55 AM 57.2 °F 55.4 °F 94% 29.90 in 10.0 mi SSW 5.8 mph - N/A   Clear
4:15 AM 57.2 °F 55.4 °F 94% 29.90 in 10.0 mi Calm Calm - N/A   Clear
4:35 AM 57.2 °F 55.4 °F 94% 29.91 in 10.0 mi Variable 4.6 mph - N/A   Clear
4:55 AM 57.2 °F 55.4 °F 94% 29.91 in 10.0 mi South 3.5 mph - N/A   Clear
5:15 AM 57.2 °F 55.4 °F 94% 29.91 in 10.0 mi Calm Calm - N/A   Clear
5:35 AM 57.2 °F 53.6 °F 88% 29.91 in 10.0 mi SW 3.5 mph - N/A   Clear
5:55 AM 55.4 °F 53.6 °F 94% 29.91 in 10.0 mi West 4.6 mph - N/A   Clear
6:15 AM 55.4 °F 53.6 °F 94% 29.92 in 10.0 mi West 5.8 mph - N/A   Clear
6:35 AM 55.4 °F 53.6 °F 94% 29.93 in 10.0 mi Calm Calm - N/A   Clear
6:55 AM 55.4 °F 53.6 °F 94% 29.93 in 10.0 mi Variable 4.6 mph - N/A   Clear
7:15 AM 55.4 °F 53.6 °F 94% 29.94 in 10.0 mi South 4.6 mph - N/A   Clear
7:35 AM 57.2 °F 55.4 °F 94% 29.95 in 10.0 mi West 4.6 mph - N/A   Clear
7:55 AM 59.0 °F 55.4 °F 88% 29.96 in 10.0 mi West 8.1 mph - N/A   Clear
8:15 AM 59.0 °F 55.4 °F 88% 29.95 in 10.0 mi West 9.2 mph - N/A   Clear
8:35 AM 60.8 °F 57.2 °F 88% 29.96 in 10.0 mi West 10.4 mph 16.1 mph N/A   Clear
8:55 AM 60.8 °F 55.4 °F 82% 29.96 in 10.0 mi WNW 12.7 mph 19.6 mph N/A   Clear
9:15 AM 62.6 °F 55.4 °F 77% 29.97 in 10.0 mi WNW 11.5 mph - N/A   Clear
9:35 AM 62.6 °F 55.4 °F 77% 29.97 in 10.0 mi WNW 10.4 mph 20.7 mph N/A   Clear
9:55 AM 64.4 °F 55.4 °F 73% 29.98 in 10.0 mi West 11.5 mph 20.7 mph N/A   Clear
10:15 AM 64.4 °F 55.4 °F 73% 29.98 in 10.0 mi West 10.4 mph 17.3 mph N/A   Clear
10:35 AM 66.2 °F 55.4 °F 68% 29.98 in 10.0 mi West 12.7 mph - N/A   Clear
10:55 AM 66.2 °F 53.6 °F 64% 29.98 in 10.0 mi West 11.5 mph 20.7 mph N/A   Clear
11:15 AM 68.0 °F 55.4 °F 64% 29.98 in 10.0 mi West 15.0 mph 23.0 mph N/A   Clear
11:35 AM 68.0 °F 55.4 °F 64% 29.98 in 10.0 mi West 16.1 mph - N/A   Clear
11:55 AM 69.8 °F 53.6 °F 56% 29.98 in 10.0 mi West 16.1 mph 23.0 mph N/A   Clear
12:15 PM 69.8 °F 55.4 °F 60% 29.97 in 10.0 mi West 12.7 mph 20.7 mph N/A   Clear
12:35 PM 71.6 °F 53.6 °F 53% 29.97 in 10.0 mi West 17.3 mph - N/A   Clear
12:55 PM 71.6 °F 51.8 °F 50% 29.97 in 10.0 mi West 16.1 mph 23.0 mph N/A   Clear
1:15 PM 73.4 °F 53.6 °F 50% 29.97 in 10.0 mi West 12.7 mph 21.9 mph N/A   Clear
1:35 PM 73.4 °F 51.8 °F 47% 29.97 in 10.0 mi West 17.3 mph - N/A   Partly Cloudy
1:55 PM 73.4 °F 48.2 °F 41% 29.97 in 10.0 mi West 17.3 mph 26.5 mph N/A   Partly Cloudy
2:15 PM 73.4 °F 46.4 °F 38% 29.97 in 10.0 mi WNW 15.0 mph 24.2 mph N/A   Clear
2:35 PM 73.4 °F 46.4 °F 38% 29.97 in 10.0 mi West 20.7 mph 27.6 mph N/A   Partly Cloudy
2:55 PM 71.6 °F 48.2 °F 43% 29.97 in 10.0 mi West 13.8 mph 23.0 mph N/A   Scattered Clouds
3:15 PM 71.6 °F 48.2 °F 43% 29.97 in 10.0 mi West 13.8 mph 24.2 mph N/A   Scattered Clouds
3:35 PM 71.6 °F 48.2 °F 43% 29.97 in 10.0 mi West 15.0 mph - N/A   Mostly Cloudy
3:55 PM 73.4 °F 46.4 °F 38% 29.96 in 10.0 mi West 19.6 mph 27.6 mph N/A   Mostly Cloudy
4:15 PM 73.4 °F 46.4 °F 38% 29.96 in 10.0 mi West 18.4 mph 25.3 mph N/A   Scattered Clouds
4:35 PM 73.4 °F 44.6 °F 36% 29.96 in - WNW 20.7 mph 28.8 mph N/A   Clear
4:55 PM 73.4 °F 44.6 °F 36% 29.96 in 10.0 mi WNW 16.1 mph 25.3 mph N/A   Clear
5:15 PM 73.4 °F 44.6 °F 36% 29.96 in 10.0 mi WNW 13.8 mph 27.6 mph N/A   Clear
5:35 PM 73.4 °F 46.4 °F 38% 29.96 in 10.0 mi West 15.0 mph 23.0 mph N/A   Clear
5:55 PM 73.4 °F 46.4 °F 38% 29.96 in 10.0 mi WNW 9.2 mph 19.6 mph N/A   Clear
6:15 PM 73.4 °F 48.2 °F 41% 29.96 in 10.0 mi West 11.5 mph - N/A   Clear
6:35 PM 71.6 °F 46.4 °F 41% 29.97 in 10.0 mi WNW 11.5 mph 17.3 mph N/A   Clear
6:55 PM 71.6 °F 46.4 °F 41% 29.96 in 10.0 mi WNW 9.2 mph 16.1 mph N/A   Partly Cloudy
7:15 PM 69.8 °F 48.2 °F 46% 29.97 in 10.0 mi WNW 8.1 mph - N/A   Clear
7:35 PM 68.0 °F 48.2 °F 49% 29.97 in 10.0 mi WNW 6.9 mph 12.7 mph N/A   Clear
7:55 PM 66.2 °F 50.0 °F 56% 29.98 in 10.0 mi WNW 5.8 mph - N/A   Clear
8:15 PM 64.4 °F 48.2 °F 56% 29.98 in 10.0 mi WNW 5.8 mph - N/A   Clear
8:35 PM 62.6 °F 50.0 °F 63% 29.98 in 10.0 mi West 3.5 mph - N/A   Clear
8:55 PM 60.8 °F 51.8 °F 72% 29.99 in 10.0 mi Calm Calm - N/A   Clear
9:15 PM 59.0 °F 50.0 °F 72% 29.99 in 10.0 mi Calm Calm - N/A   Clear
9:35 PM 59.0 °F 50.0 °F 72% 30.00 in 10.0 mi Calm Calm - N/A   Clear
9:55 PM 59.0 °F 50.0 °F 72% 30.00 in 10.0 mi Calm Calm - N/A   Clear
10:15 PM 59.0 °F 50.0 °F 72% 30.00 in 10.0 mi Calm Calm - N/A   Clear
10:35 PM 57.2 °F 50.0 °F 77% 30.00 in 10.0 mi WSW 3.5 mph - N/A   Clear
10:55 PM 55.4 °F 50.0 °F 82% 30.00 in 10.0 mi West 3.5 mph - N/A   Clear
11:15 PM 55.4 °F 50.0 °F 82% 30.00 in 10.0 mi Calm Calm - N/A   Clear
11:35 PM 55.4 °F 50.0 °F 82% 29.99 in 10.0 mi WSW 4.6 mph - N/A   Clear
11:55 PM 55.4 °F 50.0 °F 82% 29.99 in 10.0 mi WSW 3.5 mph - N/A   Clear